Location: Cran-Gévrier
(45.9039°N, 6.1012°E)
Time: 11:25:18
(UTC+00:00)

SJ-6B - Pass Details

Date: 09 February 2023
Orbit: 501 x 570 km, 97.5° (Epoch: 31 March)

Event Time Altitude Azimuth Distance (km) Brightness Sun altitude
Exits shadow 18:33:46 32° 46° (NE) 972 3.7 -18.0°
Drops below altitude 10° 18:36:40 10° 5° (N) 1,844 5.4 -18.5°
Sets 18:39:02 0° 356° (N) 2,781 6.5 -18.9°
